Probability
0 0 0 0 0 0 0 0 0 0 0 0 0 0 0 0 0 0 0 0 0 0 0 0 0 0 0 0 0 0 0 0 0 0 0 0 0 0 0 0 0 0 0 0
0 0 0 0 0 0 0 0 0 0 0 0 0 0 0 0 0 0 0 0 0 0 0 0 0 0 0 0 0 0 0 0 0 0 0 0 0 0 0 0 0 0 0 0
0 0 0 0 0 0 0 0 0 0 0 0 0 0 0 0 0 0 0 0 0 0 0 0 0 0 0 0 0 0 0 0 0 0 0 0 0 0 0 0 0 0 0 0
0 0 0 0 0 0 0 0 0 0 0 0 0 0 0 0 0 0 0 0 0 0 0 0 0 0 0 0 0 0 0 0 0 0 0 0 0 0 0 0 0 0 0 0
0 0 0 0 0 0 0 0 0 0 0 0 0 0 0 0 0 0 0 0 0 0 0 0 0 0 0 0 0 0 0 0 0 0 0 0 0 0 0 0 0 0 0 0
0 0 0 0 0 0 0 0 0 0 0 0 0 0 0 0 0 0 0 0 0 0 0 0 0 0 0 0 0 0 0 0 0 0 0 0 0 0 0 0 0 0 0 0
0 0 0 0 0 0 0 0 0 0 0 0 0 0 0 0 0 0 0 0 0 0 0 0 0 0 0 0 0 0 0 0 0 0 0 0 0 0 0 0 0 0 0 0
0 0 0 0 0 0 0 0 0 0 0 0 0 0 0 0 0 0 0 0 0 0 0 0 0 0 0 0 0 0 0 0 0 0 0 0 0 0 0 0 0 0 0 0
0 0 0 0 0 0 0 0 0 0 0 0 0 0 0 0 0 0 0 0 0 0 0 0 0 0 0 0 0 0 0 0 0 0 0 0 0 0 0 0 0 0 0 0
0 0 0 0 0 0 0 0 0 0 0 0 0 0 0 0 0 0 0 0 0 0 0 0 0 0 0 0 0 0 0 0 0 0 0 0 0 0 0 0 0 0 0 0
0 0 0 0 0 0 0 0 0 0 0 0 0 0 0 0 0 0 0 0 0 0 0 0 0 0 0 0 0 0 0 0 0 0 0 0 0 0 0 0 0 0 0 0
0 0 0 0 0 0 0 0 0 0 0 0 0 0 0 0 0 0 0 0 0 0 0 0 0 0 0 0 0 0 0 0 0 0 0 0 0 0 0 0 0 0 0 0
0 0 0 0 0 0 0 0 0 0 0 0 0 0 0 0 0 0 0 0 0 0 0 0 0 0 0 0 0 0 0 0 0 0 0 0 0 0 0 0 0 0 0 0
0 0 0 0 0 0 0 0 0 0 0 0 0 0 0 0 0 0 0 0 0 0 0 0 0 0 0 0 0 0 0 0 0 0 0 0 0 0 0 0 0 0 0 0
0 0 0 0 0 0 0 0 0 0 0 0 0 0 0 0 0 0 0 0 0 0 0 0 0 0 0 0 0 0 0 0 0 0 0 0 0 0 0 0 0 0 0 0
0 0 0 0 0 0 0 0 0 0 0 0 0 0 0 0 0 0 0 0 0 0 0 0 0 0 0 0 0 0 0 0 0 0 0 0 0 0 0 0 0 0 0 0
0 0 0 0 0 0 0 0 0 0 0 0 0 0 0 0 0 0 0 0 0 0 0 0 0 0 0 0 0 0 0 0 0 0 0 0 0 0 0 0 0 0 0 0
0 0 0 0 0 0 0 0 0 0 0 0 0 0 0 0 0 0 0 0 0 0 0 0 0 0 0 0 0 0 0 0 0 0 0 0 0 0 0 0 0 0 0 0
0 0 0 0 0 0 0 0 0 0 0 0 0 0 0 0 0 0 0 0 0 0 0 0 0 0 0 0 0 0 0 0 0 0 0 0 0 0 0 0 0 0 0 0
0 0 0 0 0 0 0 0 0 0 0 0 0 0 0 0 0 0 0 0 0 0 0 0 0 0 0 0 0 0 0 0 0 0 0 0 0 0 0 0 0 0 0 0
0 0 0 0 0 0 0 0 0 0 0 0 0 0 0 0 0 0 0 0 0 0 0 0 0 0 0 0 0 0 0 0 0 0 0 0 0 0 0 0 0 0 0 0
0 0 0 0 0 0 0 0 0 0 0 0 0 0 0 0 0 0 0 0 0 0 0 0 0 0 0 0 0 0 0 0 0 0 0 0 0 0 0 0 0 0 0 0
0 0 0 0 0 0 0 0 0 0 0 0 0 0 0 0 0 0 0 0 0 0 0 0 0 0 0 0 0 0 0 0 0 0 0 0 0 0 0 0 0 0 0 0
0 0 0 0 0 0 0 0 0 0 0 0 0 0 0 0 0 0 0 0 0 0 0 0 0 0 0 0 0 0 0 0 0 0 0 0 0 0 0 0 0 0 0 0
0 0 0 0 0 0 0 0 0 0 0 0 0 0 0 0 0 0 0 0 0 0 0 0 0 0 0 0 0 0 0 0 0 0 0 0 0 0 0 0 0 0 0 0
0 0 0 0 0 0 0 0 0 0 0 0 0 0 0 0 0 0 0 0 0 0 0 0 0 0 0 0 0 0 0 0 0 0 0 0 0 0 0 0 0 0 0 0
Wind_Speed
2 3 5 8 9 7 3 3 5 7 5 5 8 11 11 8 6 8 8 8 7 6 3 3 4 5 6 6 7 7 7 6 5 4 3 3 2 1 1 1 1 1 1 1
3 5 10 7 4 5 5 5 5 6 3 3 6 11 12 9 10 11 13 11 10 7 4 4 4 4 5 5 6 6 6 6 5 4 3 3 3 2 1 1 1 1 1 1
9 7 6 6 6 5 5 5 5 5 4 4 4 9 7 6 5 6 8 10 10 11 10 7 5 4 5 5 6 6 6 6 6 5 4 4 3 3 2 1 1 2 1 0
7 7 4 4 5 6 5 5 5 3 1 4 1 6 9 4 3 5 8 9 10 9 8 7 7 5 5 4 5 6 6 6 5 5 5 5 3 2 1 1 0 2 2 1
7 6 7 7 7 7 7 3 1 1 1 3 2 4 11 2 5 8 9 10 10 10 10 9 8 7 5 5 5 5 6 5 5 5 6 6 4 2 1 1 1 2 2 2
6 4 6 8 3 4 4 3 5 5 4 4 6 6 10 6 8 7 9 11 11 10 9 8 7 6 5 4 5 5 6 5 5 6 6 6 6 4 3 2 1 1 1 2
3 3 3 4 4 2 4 5 3 3 1 8 4 5 12 8 7 9 14 14 12 11 11 10 10 8 7 7 6 6 6 5 5 5 5 5 5 5 4 2 1 0 1 1
7 7 7 6 9 8 6 9 7 5 5 6 2 8 10 5 5 5 8 11 11 11 11 12 12 10 9 8 7 7 7 5 5 5 5 4 4 3 2 2 2 1 1 2
9 8 2 4 4 11 6 6 7 5 2 4 7 8 9 2 3 2 7 10 13 13 12 12 11 10 10 9 8 8 8 6 6 5 5 4 4 3 3 2 1 1 2 2
9 5 2 0 4 2 6 6 5 5 5 5 6 6 5 5 4 3 7 11 12 11 11 11 11 11 10 9 8 7 7 7 6 6 5 4 3 3 3 1 1 2 2 2
8 6 2 1 7 9 5 4 5 4 5 5 4 8 6 5 5 7 10 12 13 14 14 13 12 11 9 8 8 8 7 6 5 5 4 4 3 2 2 1 2 2 2 3
7 7 4 7 5 5 7 8 8 6 5 5 3 9 5 3 4 6 8 9 10 12 12 11 10 10 9 9 8 8 7 7 6 5 5 4 3 2 1 2 2 3 3 4
10 8 4 2 2 2 5 6 7 5 3 4 4 9 4 2 1 3 6 7 8 9 9 8 9 10 11 10 9 8 8 7 6 5 5 3 2 2 2 3 3 4 4 5
9 6 8 11 8 7 6 7 8 7 5 6 8 8 6 4 4 4 5 7 7 8 9 10 10 10 10 9 9 8 7 6 6 5 4 4 3 3 4 4 4 5 5 5
7 6 6 6 4 5 7 7 9 11 10 9 9 9 10 7 7 6 5 4 5 7 8 10 11 9 9 8 8 8 7 6 6 5 4 4 4 4 4 4 5 5 6 6
5 6 5 4 5 5 5 6 9 10 9 10 8 11 8 5 3 3 4 5 6 7 8 9 9 10 10 10 9 7 7 6 5 5 4 4 3 4 4 5 6 6 7 7
6 6 5 4 2 2 6 9 10 7 8 9 13 14 5 4 6 6 6 6 6 7 7 9 10 10 10 9 9 8 7 5 5 4 3 3 4 4 5 6 6 7 7 7
9 7 4 3 3 7 9 5 7 8 9 9 8 6 5 7 3 1 3 5 5 5 6 7 7 7 7 7 6 6 6 5 4 3 3 4 4 5 6 6 7 7 7 7
5 8 5 4 4 6 8 5 5 7 8 6 8 6 2 3 3 3 2 3 5 5 5 6 7 7 7 7 7 7 5 4 3 3 4 4 5 5 6 6 7 7 6 7
4 4 6 5 5 8 9 4 3 4 6 5 6 6 6 6 2 4 2 2 3 5 5 6 6 6 7 6 6 6 4 3 3 4 5 5 5 5 6 7 7 6 6 8
4 3 5 6 6 9 9 3 5 5 9 3 5 7 8 7 5 3 4 4 4 5 6 7 7 6 5 5 6 5 3 4 4 4 4 5 5 6 6 6 6 6 7 7
10 8 7 6 5 11 6 7 9 8 3 4 5 5 7 5 3 5 5 6 6 6 6 6 6 5 4 4 5 4 3 4 3 4 5 5 6 6 5 6 7 7 7 8
8 10 9 11 10 6 6 8 5 5 5 4 5 4 6 6 5 5 5 6 5 6 5 4 6 5 3 3 3 3 4 3 3 4 5 6 6 6 6 6 7 7 6 6
5 4 5 5 7 5 4 3 4 5 5 5 5 6 7 6 6 6 6 5 5 4 4 4 5 4 2 2 2 3 4 3 3 5 6 6 6 6 6 5 5 6 6 7
8 8 5 5 4 1 3 6 6 4 4 4 4 5 6 7 6 7 6 6 5 4 3 4 4 3 3 2 3 3 3 3 4 5 6 6 6 6 6 6 6 7 7 8
6 9 9 8 8 8 7 6 7 7 6 6 6 4 3 5 6 6 5 5 5 4 3 3 3 2 2 3 4 4 4 3 4 5 6 5 5 5 6 7 8 12 14 19
Wind_Direction
145 110 204 215 206 209 217 243 267 263 253 201 232 254 259 243 221 211 200 189 184 176 163 106 87 94 98 102 113 120 121 127 127 120 120 115 110 92 76 83 99 97 103 124
90 232 229 215 207 210 228 254 271 284 289 225 256 264 260 238 216 203 194 187 181 168 156 131 108 99 107 118 118 118 122 126 127 126 128 127 124 112 96 29 34 47 110 140
188 227 223 198 208 214 230 227 242 263 313 318 303 294 279 265 222 197 187 182 178 171 166 156 139 126 122 130 136 131 129 126 123 121 109 89 71 53 36 18 354 339 339 157
221 238 213 199 208 190 243 233 220 238 297 291 319 295 286 268 242 201 187 180 182 174 163 158 152 148 148 151 139 129 128 124 125 124 126 131 137 150 187 193 321 345 5 14
228 206 190 206 214 186 216 215 186 188 182 296 265 235 281 270 241 228 203 192 186 177 168 163 161 157 152 149 141 133 126 122 123 121 127 125 125 141 128 85 52 15 2 4
223 217 194 198 184 175 157 73 41 45 74 280 229 191 273 237 221 218 201 195 186 176 167 158 152 143 141 142 139 138 134 131 131 127 130 135 139 140 126 103 66 7 347 346
248 255 220 148 125 114 119 99 4 332 349 251 219 200 252 252 233 207 194 190 183 174 166 162 160 161 159 160 158 153 147 144 143 137 139 144 146 146 149 155 160 214 317 307
197 248 218 190 175 174 179 156 178 214 229 275 257 225 253 269 281 222 184 171 170 174 174 173 173 170 168 169 167 163 160 157 156 148 147 148 146 145 157 169 179 209 235 257
184 232 260 202 178 147 156 197 180 152 234 268 275 279 299 285 359 112 148 159 177 182 182 180 177 175 173 173 175 172 167 162 163 158 152 153 153 153 164 175 186 233 256 269
164 205 249 215 107 142 160 164 132 157 191 241 277 271 260 278 256 182 178 183 188 186 186 184 183 181 179 176 172 169 167 167 165 162 162 159 161 166 169 169 240 273 283 289
156 168 211 174 189 188 166 181 174 170 175 177 251 270 235 244 229 206 204 198 191 191 192 190 187 183 176 168 165 166 167 161 162 163 158 152 163 167 164 201 258 272 280 291
157 140 193 234 238 197 184 189 164 174 220 191 194 267 275 276 247 211 211 207 201 198 195 189 181 173 172 171 168 168 167 166 169 165 159 164 170 172 198 253 268 271 278 282
154 141 138 333 283 209 208 205 190 166 143 170 187 261 298 325 306 225 218 214 205 198 191 182 176 178 178 175 170 168 168 169 167 162 161 169 186 207 237 256 267 272 274 281
137 141 172 193 208 187 202 208 186 168 192 216 222 248 281 278 267 252 232 217 204 197 190 184 183 182 177 173 169 167 170 169 165 163 168 186 212 226 241 254 263 268 271 276
130 166 197 218 220 176 200 203 188 197 204 207 230 231 248 245 237 237 232 213 194 195 191 188 185 178 171 167 167 166 168 169 164 166 182 209 226 237 249 260 266 270 272 271
125 160 176 214 218 208 226 224 206 214 219 228 249 260 247 245 216 216 213 199 200 203 197 188 178 172 172 171 168 164 167 170 163 173 200 222 237 250 258 264 268 272 274 274
147 144 151 213 214 162 247 223 206 209 211 199 227 245 232 216 218 216 211 203 207 205 192 183 179 176 173 168 163 167 167 161 164 183 211 230 243 256 263 268 272 273 273 273
143 142 143 160 142 221 240 233 204 213 236 217 228 244 217 211 206 203 195 195 207 200 188 179 167 159 154 152 150 149 149 156 169 195 227 243 249 260 269 273 273 272 271 271
140 139 136 147 197 261 286 252 193 200 254 227 222 229 182 122 81 327 274 201 197 187 170 160 153 146 141 145 146 141 147 156 178 217 240 250 252 261 271 274 274 274 275 276
73 114 129 145 176 224 240 229 181 143 263 243 190 182 161 133 146 253 219 149 134 129 130 130 127 122 131 140 138 138 153 171 213 235 247 254 255 259 266 270 274 274 274 276
138 133 158 171 207 249 247 207 120 176 240 202 167 168 166 181 197 194 139 127 128 123 122 122 121 126 139 141 135 144 168 211 233 246 258 264 264 264 267 271 272 278 281 284
170 171 184 164 195 248 221 148 184 211 178 151 156 166 173 183 145 139 143 139 133 124 122 123 122 125 135 140 140 161 211 235 248 259 266 270 272 274 277 276 280 281 283 288
193 187 182 187 208 230 184 193 199 159 159 168 164 167 158 158 169 164 157 150 143 136 132 126 130 131 140 154 156 190 237 251 261 269 272 275 278 275 274 276 283 288 285 285
234 171 156 216 250 239 214 198 174 172 170 170 164 159 160 170 172 166 158 155 148 141 138 131 133 144 172 195 204 224 250 260 263 270 275 277 279 281 280 276 274 279 282 283
199 168 174 218 247 198 221 203 185 165 146 141 143 160 170 163 167 168 164 161 156 145 142 142 153 173 205 228 249 257 263 269 272 275 276 279 275 277 283 278 270 278 266 272
188 172 174 209 205 184 211 201 175 166 173 168 155 148 150 161 163 155 155 153 150 148 144 149 166 195 229 250 267 275 275 269 270 278 279 276 277 279 281 287 292 286 286 294